Terminal Aerodrome Forecast
Issued by NWS

Home | Current Version | Previous Version | Text Only | Print | Product List | Glossary On
Versions: 1 2 3 4 5 6 7 8 9 10 11 12 13 14 15 16 17 18
000
FTUS41 KBGM 031720
TAFRME
TAF
KRME 031720Z 0318/0418 28010KT P6SM SCT070
      TEMPO 0319/0323 3SM -TSRA OVC035CB
     FM032300 VRB02KT P6SM SCT100
     FM041500 27010G20KT P6SM BKN250=

USA.gov is the U.S. government's official web portal to all federal, state and local government web resources and services.